Flag for Greece Weather past 2 weeks in Acharnes, Greece

Now
64 °F

Partly sunny.


Feels Like: 64 °F
Forecast: 48 / 61 °F
Wind: 16 mph from South

Location: Elefsis Airport


UV Index: 5 (Moderate)

Visibility: N/A


Pressure: 29.74 "Hg

Humidity: 64%

Dew point: 52 °F

Location of AcharnesLocation

Historic Weather in Acharnes

°F

Acharnes temperature yesterday

Maximum temperature yesterday: 70 °F (at 12:20 PM)
Minimum temperature yesterday: 45 °F (at 6:50 AM)
Average temperature yesterday: 61 °F

Past Weeks' High & Low Weather Summary

 TemperatureHumidityPressure
High75 °F (Apr 9, 2:20 PM)94% (Apr 2, 3:50 AM)30.09 "Hg (Apr 2, 3:50 AM)
Low45 °F (Apr 11, 4:20 AM)21% (Apr 11, 12:50 PM)29.74 "Hg (Apr 16, 3:50 PM)
Average60 °F66%29.93 "Hg
* Reported Apr 1 3:20 PM — Apr 16 3:50 PM, Acharnes, Weather by CustomWeather, © 2014

Note: Actual official high and low records may vary slightly from our data, if they occured in-between our weather recording intervals... More about our weather records

Advertising

Historic Weather Conditions — Data for Previous 24 hours

 ConditionsComfort  
Time TempWeatherWind HumidityBarometerVisibility
3:50 PM
Apr 16
64 °FPartly sunny.16 mph64%29.74 "HgN/A
2:50 PM66 °FPartly sunny.16 mph60%29.77 "HgN/A
2:20 PM64 °FPartly sunny.13 mph64%29.77 "HgN/A
1:50 PM64 °FPartly sunny.13 mph64%29.77 "HgN/A
1:20 PM64 °FPartly sunny.13 mph60%29.77 "HgN/A
12:50 PM66 °FBroken clouds.12 mph52%29.77 "HgN/A
12:20 PM70 °FPartly sunny.15 mph46%29.80 "HgN/A
11:50 AM68 °FPartly sunny.15 mph43%29.80 "HgN/A
11:20 AM68 °FPartly sunny.12 mph46%29.80 "HgN/A
10:50 AM66 °FPartly sunny.No wind49%29.80 "HgN/A
10:20 AM63 °FPartly sunny.No wind59%29.80 "HgN/A
9:50 AM61 °FBroken clouds.No wind68%29.80 "HgN/A
9:20 AM59 °FBroken clouds.No wind68%29.80 "HgN/A
8:50 AM57 °FBroken clouds.No wind72%29.80 "HgN/A
8:20 AM54 °FBroken clouds.No wind82%29.80 "HgN/A
7:50 AM52 °FBroken clouds.No wind82%29.80 "HgN/A
7:20 AM52 °FPassing clouds.No wind82%29.80 "HgN/A
6:50 AM50 °FPassing clouds.No wind88%29.80 "HgN/A
6:20 AM50 °FPassing clouds.No wind88%29.80 "HgN/A
5:50 AM50 °FPassing clouds.No wind82%29.80 "HgN/A
5:20 AM50 °FPassing clouds.No wind82%29.80 "HgN/A
4:50 AM48 °FPassing clouds.No wind87%29.80 "HgN/A
4:20 AM50 °FPassing clouds.No wind82%29.80 "HgN/A
3:50 AM50 °FPassing clouds.No wind88%29.80 "HgN/A
1:50 AM52 °FPassing clouds.No wind82%29.83 "HgN/A
1:20 AM52 °FPassing clouds.No wind82%29.86 "HgN/A
12:50 AM52 °FPassing clouds.No wind77%29.86 "HgN/A
11:50 PM
Apr 15
54 °FPassing clouds.No wind77%29.86 "HgN/A
10:50 PM57 °FPassing clouds.No wind82%29.86 "HgN/A
9:50 PM59 °FPassing clouds.No wind77%29.86 "HgN/A
9:20 PM57 °FPassing clouds.No wind82%29.86 "HgN/A
8:50 PM61 °FPassing clouds.No wind72%29.83 "HgN/A
8:20 PM61 °FPassing clouds.No wind77%29.83 "HgN/A
7:50 PM63 °FPassing clouds.No wind73%29.83 "HgN/A
7:20 PM64 °FPassing clouds.5 mph68%29.83 "HgN/A
6:50 PM64 °FPassing clouds.8 mph68%29.83 "HgN/A
6:20 PM66 °FPassing clouds.12 mph60%29.83 "HgN/A
5:50 PM66 °FPassing clouds.12 mph60%29.83 "HgN/A
5:20 PM68 °FPassing clouds.12 mph53%29.83 "HgN/A
4:50 PM70 °FPassing clouds.12 mph46%29.83 "HgN/A
Weather by CustomWeather, © 2014

See weather overview